COSMOS 1867 COOLANT

Satellite information

Favourite Embed

Satellite Type and Status

DEBRISIN ORBIT

Key statistics

Satellite COSMOS 1867 COOLANT at a glance.

Uptime

13821

Days in orbit

Revolutions

≈ 14.3

Per day

Orbit

LEO

Low Earth Orbit

Inclination

65.0

Latest

Satellite identification and parameters

Extended collection of information and parameters for COSMOS 1867 COOLANT.

Object identification

Identified? True

Debris? False

Object name: COSMOS 1867 COOLANT

International designator: 1987-060Z

Object number (NORAD): 39662

Object ID (CCSDS): 39662

Country: COMMONWEALTH OF INDEPENDENT STATES (CIS)

Current information (Y/N): Y

RCS size: SMALL

Orbital parameters

Period: 100.41 minutes

Inclination: 65.0093 deg

SMA: 7156.126 km

Apoapsis: 790.497 km

Periapsis: 765.485 km

RAAN: 55.8751 deg

Eccentricy: 0.0017476

Argument of periapsis: 258.5179 deg

Mean anomaly: 101.3944 deg

Mean motion: 14.34120903 rev/day

Mean motion (dot): 0.00000581 rev/day2

B* drag term: 0.00024282 1/REarth

Two-line elements (TLE)

Creation date: May 11, 2025, 10:21 p.m.

Reference frame: TEME

Reference center: EARTH

Epoch: May 11, 2025, 11:59 a.m. UTC

TLE line 0: 0 COSMOS 1867 COOLANT

TLE line 1: 1 39662U 87060Z 25131.49939970 .00000581 00000-0 24282-3 0 9994

TLE line 2: 2 39662 65.0093 55.8751 0017476 258.5179 101.3944 14.34120903577888

Live tracking on map

Real-time ground track for satellite COSMOS 1867 COOLANT.

In-orbit conjunctions

A list of the most updated potential collisions computed for object COSMOS 1867 COOLANT.

Target Orbit TCA Probability of collision Miss distance Type
SL-8 DEB LEO 2025-02-09 07:53:20 0.000334345 187.0 (m) DEBRIS

Associated space launch

Nuclear-powered magnetospheric research satellite

COSMOS 1867 COOLANT was lifted into orbit during the mission ‘Tsiklon-2 | Plasma-A 2’, on board a Tsiklon-2 space rocket.

The launch took place on July 10, 1987, 3:35 p.m. from 90.

For more information about the launch, click the button.

Launch to space Tsiklon-2 | Plasma-A 2
Tsiklon-2 | Plasma-A 2

Agency: N/A

Status: Launch Successful

Launch date: July 10, 1987, 3:35 p.m. UTC

Rocket: Tsiklon-2

Launch pad: 90

Location: Baikonur Cosmodrome, Republic of Kazakhstan

...

Latest news about this satellite

There are no fresh news available about this satellite. Check back as we update our databases every day.


Newsletter sign-up

Weekly statistics, charts and insights to help you stay on top of the space industry.